This demonstration page uses our WeatherBlox Daily Observations layout. Learn more.

Left ArrowRight Arrow

Hourly Observations for May 16, 2021

Temp ( °F °C ) Dew Point ( °F °C ) Humidity (%) Winds ( mph kmh ) Pressure ( in mb ) Visibility ( mi km ) Precip ( " mm )
12:15 am 00:15 Clear 54 12 45 7 72 72 SSW 5 7 30.25 1024 10 16.0934 N/A
12:35 am 00:35 Clear 52 11 45 7 77 77 WSW 6 9 30.24 1024 10 16.0934 N/A
12:55 am 00:55 Clear 52 11 45 7 77 77 SW 3 6 30.25 1025 10 16.0934 N/A
1:15 am 01:15 Clear 57 14 43 6 59 59 SE 6 9 30.25 1024 10 16.0934 N/A
1:35 am 01:35 Clear 57 14 43 6 59 59 S 5 7 30.25 1024 10 16.0934 N/A
1:55 am 01:55 Clear 59 15 43 6 55 55 S 5 7 30.25 1024 10 16.0934 N/A
2:15 am 02:15 Clear 55 13 45 7 67 67 S 3 6 30.24 1024 10 16.0934 N/A
2:35 am 02:35 Clear 54 12 45 7 72 72 S 5 7 30.24 1024 10 16.0934 N/A
2:55 am 02:55 Clear 54 12 45 7 72 72 N N/A 30.24 1024 10 16.0934 N/A
3:15 am 03:15 Clear 54 12 43 6 67 67 SSW 3 6 30.24 1024 10 16.0934 N/A
3:35 am 03:35 Clear 50 10 45 7 82 82 N N/A 30.26 1025 10 16.0934 N/A
3:55 am 03:55 Clear 50 10 45 7 82 82 SSW 3 6 30.25 1024 10 16.0934 N/A
4:15 am 04:15 Clear 48 9 45 7 87 87 N N/A 30.25 1024 10 16.0934 N/A
4:35 am 04:35 Clear 46 8 45 7 93 93 N N/A 30.26 1025 10 16.0934 N/A
4:55 am 04:55 Clear 45 7 43 6 93 93 WSW 3 6 30.26 1025 10 16.0934 N/A
5:15 am 05:15 Clear 46 8 43 6 87 87 N N/A 30.26 1025 10 16.0934 N/A
5:35 am 05:35 Clear 46 8 43 6 87 87 N N/A 30.26 1025 10 16.0934 N/A
5:55 am 05:55 Clear 46 8 43 6 87 87 N N/A 30.26 1025 10 16.0934 N/A
6:15 am 06:15 Sunny 46 8 45 7 93 93 N N/A 30.27 1025 10 16.0934 N/A
6:35 am 06:35 Partly Cloudy 48 9 45 7 87 87 N N/A 30.27 1025 10 16.0934 N/A
6:55 am 06:55 Partly Cloudy 48 9 45 7 87 87 N N/A 30.27 1025 10 16.0934 N/A
7:15 am 07:15 Sunny 48 9 45 7 87 87 N N/A 30.28 1025 10 16.0934 N/A
7:35 am 07:35 Partly Cloudy 48 9 46 8 94 94 N N/A 30.29 1026 10 16.0934 N/A
7:55 am 07:55 Partly Cloudy 50 10 46 8 88 88 N N/A 30.29 1026 10 16.0934 N/A
8:15 am 08:15 Mostly Cloudy 52 11 45 7 77 77 N N/A 30.29 1026 10 16.0934 N/A
8:35 am 08:35 Mostly Cloudy 52 11 46 8 82 82 N N/A 30.3 1026 10 16.0934 N/A
8:55 am 08:55 Mostly Cloudy 52 11 46 8 82 82 N N/A 30.3 1026 10 16.0934 N/A
9:15 am 09:15 Mostly Cloudy 52 11 46 8 82 82 N N/A 30.3 1026 10 16.0934 N/A
9:35 am 09:35 Mostly Cloudy 54 12 46 8 77 77 N N/A 30.3 1026 10 16.0934 N/A
9:55 am 09:55 Partly Cloudy 55 13 46 8 72 72 S 3 6 30.31 1026 10 16.0934 N/A
10:15 am 10:15 Mostly Cloudy 59 15 46 8 63 63 N N/A 30.3 1026 10 16.0934 N/A
10:35 am 10:35 Cloudy 61 16 48 9 63 63 N N/A 30.3 1026 10 16.0934 N/A
10:55 am 10:55 Partly Cloudy 63 17 46 8 56 56 ESE 3 6 30.29 1026 10 16.0934 N/A
11:15 am 11:15 Partly Cloudy 64 18 46 8 52 52 N N/A 30.28 1026 10 16.0934 N/A
11:35 am 11:35 Partly Cloudy 68 20 48 9 49 49 N N/A 30.28 1025 10 16.0934 N/A
11:55 am 11:55 Sunny 68 20 46 8 46 46 N N/A 30.28 1025 10 16.0934 N/A
12:15 pm 12:15 Sunny 68 20 46 8 46 46 N N/A 30.27 1025 10 16.0934 N/A
12:35 pm 12:35 Sunny 68 20 48 9 49 49 N N/A 30.27 1025 10 16.0934 N/A
12:55 pm 12:55 Partly Cloudy 68 20 50 10 53 53 SW 3 6 30.28 1025 10 16.0934 N/A
1:15 pm 13:15 Partly Cloudy 68 20 50 10 53 53 NW 10 17 30.28 1025 10 16.0934 N/A
1:35 pm 13:35 Cloudy 68 20 50 10 53 53 WNW 9 15 30.28 1025 10 16.0934 N/A
1:55 pm 13:55 Cloudy 66 19 50 10 56 56 WNW 12 19 30.28 1025 10 16.0934 N/A
2:15 pm 14:15 Cloudy with Light Thunderstorms 64 18 50 10 60 60 NW 9 15 30.28 1026 10 16.0934 N/A
2:35 pm 14:35 Cloudy with Light Thunderstorms 63 17 50 10 64 64 W 13 20 30.29 1026 10 16.0934 N/A
2:55 pm 14:55 Cloudy with Light Rain 61 16 52 11 72 72 W 8 13 30.3 1026 10 16.0934 N/A
3:15 pm 15:15 Cloudy with Light Rain 61 16 54 12 77 77 W 9 15 30.29 1026 10 16.0934 N/A
3:35 pm 15:35 Cloudy 61 16 52 11 72 72 W 6 9 30.29 1026 10 16.0934 N/A
3:55 pm 15:55 Cloudy 61 16 52 11 72 72 W 5 7 30.29 1026 10 16.0934 N/A
4:15 pm 16:15 Cloudy with Drizzle 61 16 52 11 72 72 WNW 5 7 30.29 1026 10 16.0934 N/A
4:35 pm 16:35 Cloudy 61 16 52 11 72 72 N N/A 30.29 1026 10 16.0934 N/A
4:55 pm 16:55 Cloudy with Light Rain 61 16 50 10 68 68 N N/A 30.28 1025 10 16.0934 N/A
5:15 pm 17:15 Cloudy 61 16 50 10 68 68 NE 5 7 30.28 1025 10 16.0934 N/A
5:35 pm 17:35 Cloudy 61 16 50 10 68 68 NE 3 6 30.28 1025 10 16.0934 N/A
5:55 pm 17:55 Cloudy 61 16 50 10 68 68 NE 6 9 30.28 1025 10 16.0934 N/A
6:15 pm 18:15 Cloudy 59 15 50 10 72 72 NE 5 7 30.28 1025 10 16.0934 N/A
6:35 pm 18:35 Cloudy 59 15 52 11 77 77 NE 7 11 30.28 1025 10 16.0934 N/A
6:55 pm 18:55 Cloudy 59 15 52 11 77 77 NE 3 6 30.27 1025 10 16.0934 N/A
7:15 pm 19:15 Cloudy 59 15 52 11 77 77 NE 7 11 30.28 1025 10 16.0934 N/A
7:35 pm 19:35 Cloudy 59 15 52 11 77 77 NE 7 11 30.27 1025 10 16.0934 N/A
7:55 pm 19:55 Cloudy 59 15 52 11 77 77 NE 6 9 30.27 1025 10 16.0934 N/A
8:15 pm 20:15 Cloudy 57 14 52 11 82 82 NE 5 7 30.27 1025 10 16.0934 N/A
8:35 pm 20:35 Cloudy 57 14 52 11 82 82 NE 5 7 30.27 1025 10 16.0934 N/A
8:55 pm 20:55 Cloudy 57 14 52 11 82 82 N N/A 30.27 1025 10 16.0934 N/A
9:15 pm 21:15 Cloudy 57 14 52 11 82 82 N N/A 30.27 1025 10 16.0934 N/A
9:35 pm 21:35 Cloudy 55 13 52 11 88 88 N N/A 30.28 1025 10 16.0934 N/A
9:55 pm 21:55 Cloudy 55 13 50 10 82 82 N N/A 30.28 1025 10 16.0934 N/A
10:15 pm 22:15 Cloudy 55 13 52 11 88 88 N 3 6 30.28 1025 10 16.0934 N/A
10:35 pm 22:35 Cloudy 54 12 52 11 94 94 N 3 6 30.28 1026 10 16.0934 N/A
10:55 pm 22:55 Partly Cloudy 54 12 50 10 88 88 N N/A 30.28 1026 10 16.0934 N/A
11:15 pm 23:15 Clear 52 11 50 10 94 94 N N/A 30.29 1026 10 16.0934 N/A
11:35 pm 23:35 Mostly Cloudy 52 11 50 10 94 94 N N/A 30.31 1027 10 16.0934 N/A
11:55 pm 23:55 Partly Cloudy 52 11 50 10 94 94 N N/A 30.31 1027 10 16.0934 N/A

Powered by AerisWeather